EW6790 Weather Reports


time (UTC)temp
C
wind
direction
speed
KPH
gust
KPH
rain 1hr
cm
rain 24hr
cm
rain mn
cm
humidity
%
barometer
mb
20260502194504 16 275 12.9 25.7 0.00 0.00 0.00 33 1015.5
20260502191503 16 288 16.1 30.6 0.00 0.00 0.00 34 1016.1
20260502190100 16 262 19.3 27.4 0.00 0.00 0.00 32 1016.2
20260502184556 16 265 19.3 27.4 0.00 0.00 0.00 34 1016.6
20260502183154 15 271 9.7 20.9 0.00 0.00 0.00 34 1016.8
20260502181530 15 246 8.0 32.2 0.00 0.00 0.00 34 1017.1
20260502163023 12 269 16.1 35.4 0.00 0.00 0.00 38 1018.6
20260502161600 12 269 12.9 22.5 0.00 0.00 0.00 39 1018.8
20260502151523 11 268 11.3 22.5 0.00 0.00 0.00 40 1019.4
20260502123007 -17 0.0 0.0 0.00 0.00 0.00 1019.8
20260502121503 -17 0.0 0.0 0.00 0.00 0.00 1019.8
20260502114554 -17 0.0 0.0 0.00 0.00 0.00 1019.8
20260502113050 -17 0.0 0.0 0.00 0.00 0.00 1019.7
20260502111539 -17 0.0 0.0 0.00 0.00 0.00 1019.8
20260502110027 -17 0.0 0.0 0.00 0.00 0.00 1019.8
20260502104513 0 232 1.6 4.8 0.00 0.00 0.00 77 1019.9
20260502103007 0 239 3.2 4.8 0.00 0.00 0.00 77 1019.9
20260502101505 0 245 3.2 4.8 0.00 0.00 0.00 76 1019.8
20260502091502 0 240 1.6 3.2 0.00 0.00 0.00 77 1019.8
20260502070051 2 222 1.6 4.8 0.00 0.00 0.00 65 1019.8
20260502064536 2 209 3.2 4.8 0.00 0.00 0.00 65 1019.9
20260502063037 2 227 1.6 1.6 0.00 0.00 0.00 63 1020.0
20260502061531 3 226 0.0 3.2 0.00 0.00 0.00 62 1020.0
20260502060027 3 252 1.6 3.2 0.00 0.00 0.00 58 1020.0
20260502054526 3 255 1.6 4.8 0.00 0.00 0.00 58 1019.9
20260502053023 3 255 1.6 3.2 0.00 0.00 0.00 58 1019.9
20260502051519 4 265 1.6 3.2 0.00 0.00 0.00 57 1019.8
20260502050017 4 265 1.6 3.2 0.00 0.03 0.00 56 1019.6
20260502044559 5 286 1.6 3.2 0.00 0.03 0.00 55 1019.5
20260502043059 5 286 0.0 3.2 0.00 0.03 0.00 53 1019.5
20260502041538 5 286 0.0 3.2 0.00 0.03 0.00 53 1019.6
20260502040036 5 327 0.0 1.6 0.00 0.03 0.00 52 1019.6
20260502034535 5 327 0.0 1.6 0.00 0.03 0.00 51 1019.7
20260502033032 6 327 0.0 1.6 0.00 0.03 0.00 50 1019.7
20260502031529 6 327 0.0 1.6 0.00 0.03 0.00 49 1019.6
20260502030028 6 327 0.0 1.6 0.00 0.03 0.00 49 1019.6
20260502024528 7 327 0.0 3.2 0.00 0.03 0.00 48 1019.4
20260502023031 7 327 0.0 4.8 0.00 0.03 0.00 49 1019.4
20260502021504 7 355 3.2 4.8 0.00 0.03 0.00 48 1019.4
20260502020003 7 340 0.0 1.6 0.00 0.03 0.00 48 1019.2
20260502014559 8 343 0.0 3.2 0.00 0.03 0.00 48 1019.0
20260502013038 8 8 0.0 1.6 0.00 0.03 0.00 47 1019.0
20260502011534 8 8 0.0 0.0 0.00 0.03 0.00 44 1018.8
20260502010015 9 337 0.0 3.2 0.00 0.03 0.00 43 1018.6
20260502004513 9 51 0.0 8.0 0.00 0.03 0.00 43 1018.5
20260502003056 9 337 1.6 6.4 0.00 0.03 0.00 42 1018.4
20260502001553 10 359 0.0 3.2 0.00 0.03 0.00 41 1018.4
20260502000034 11 310 3.2 8.0 0.00 0.03 0.00 39 1018.2
20260501234538 11 314 6.4 17.7 0.00 0.03 0.00 38 1018.1
20260501233015 11 337 3.2 14.5 0.00 0.03 0.00 37 1018.0
20260501231515 11 299 8.0 19.3 0.00 0.03 0.00 36 1018.0
20260501230100 13 279 0.0 9.7 0.00 0.03 0.00 37 1018.0
20260501224603 12 30 1.6 11.3 0.00 0.03 0.00 37 1018.1
20260501223045 12 322 0.0 8.0 0.00 0.03 0.00 37 1018.0
20260501221548 13 48 1.6 9.7 0.00 0.03 0.00 38 1017.9
20260501220017 11 329 1.6 6.4 0.00 0.03 0.00 38 1017.9
20260501214516 12 65 3.2 9.7 0.00 0.03 0.00 37 1018.1
20260501213110 11 350 4.8 17.7 0.00 0.03 0.00 38 1017.9
20260501211610 11 302 1.6 16.1 0.00 0.03 0.00 39 1018.1
20260501210039 11 40 1.6 9.7 0.00 0.03 0.00 38 1018.1
20260501204539 12 21 6.4 11.3 0.00 0.03 0.00 37 1018.0
20260501203021 11 337 3.2 14.5 0.00 0.03 0.00 38 1018.2
20260501201520 12 302 3.2 16.1 0.00 0.03 0.00 39 1018.2
20260501200012 11 307 3.2 11.3 0.00 0.03 0.00 40 1018.1